星链-6380 (STARLINK-6380 )

导读

STARLINK-6380是美国太空探索技术公司SpaceX星链星座的一员,由美国于2023年7月16日发射,属于星链星座低轨卫星组网的卫星之一。它主要服务于全球高速互联网接入,为偏远地区、航海航空等场景提供网络覆盖,延续星链低轨组网的部署节奏,推进全球卫星互联网覆盖网络构建。

基本信息
目录编号:
57344
目录名称:
STARLINK-6380
国际标识:
2023-099S
轨道中心:
EARTH
卫星名称:
星链-6380
卫星全名:
星链-6380 (STARLINK-6380 )
卫星状态:
在轨 (已飞行1146 天)
发射日期:
2023-07-16 UTC
国别 :
美国 (US)
星等 :
--
轨道信息
数据来源 国际轨道数据 AOE轨道数据
星历时间 2026-09-03T23:11:33+0800
19小时前
查看轨道信息
2026-08-30T06:00:00+0800
5天前
查看轨道信息
半长轴 6861.198km 6861.179km
偏心率 0.000244 0.0002615
轨道倾角 43.004° 43.003°
近地点辐角 292.423° 277.916°
升交点赤经 327.200° 353.834°
平近点角 67.636° 35.225°
近地点 481.386km 481.247km
远地点 484.736km 484.837km
周期 94.267分钟 94.267分钟
每日圈数 15.275761 15.275825
详细信息
固有亮度:
5
最大亮度:
2.5
卫星平台:
Starlink v1.5
覆盖范围:
全球
运营商:
太空探索技术公司
运营商所在国:
美国
制造商(研发单位):
太空探索技术公司
制造商所在国:
美国
使用方式:
暂无
卫星简介
星链(Starlink)计划是由太空探索技术公司(SpaceX)提出的一个巨型低轨卫星互联网星座项目,计划在2019年至2024年间在太空搭建由约1.2万颗卫星组成的“星链”网络,其中1584颗将部署在地球上空550千米处的近地轨道,并从2020年开始工作。该卫星仍在工作。
2D轨道图
3D轨道图
轨道高度分析图
轨道倾角分析图
轨道综合分析图
查看轨道综合分析图
交会数据列表
事件ID 空间交会对象 最接近时刻(TCA) 交会距离 交会风险概率(CRP) 交会风险指数(CRI) 操作
CDM_260906-005305-734406-783121
2026-09-06T
00:53:15+0000
0.712 km
远距离
1.80788E-5 中风险 0.6
CDM_260906-031405-734406-783121
2026-09-06T
03:14:28+0000
0.922 km
远距离
7.572366E-6 低风险 0.53
CDM_260906-153805-734406-438721
2026-09-06T
15:38:51+0000
1.403 km
极远距离
4.621046E-6 低风险 0.48
CDM_260904-211805-734406-471321
2026-09-04T
21:18:56+0000
2.814 km
极远距离
1.153491E-6 低风险 0.36
CDM_260906-022705-734406-783121
2026-09-06T
02:27:24+0000
2.645 km
极远距离
4.62763E-7 极低风险 0.28
CDM_260906-044805-734406-783121
2026-09-06T
04:48:37+0000
2.976 km
极远距离
4.053349E-7 极低风险 0.27